Location: St Paul
(44.9440°N, 93.0930°W)
Time: 11:48:36
(UTC-05:00)

ISS - Visible Passes

Search period start: 18 July 2018 00:00
Search period end: 28 July 2018 00:00
Orbit: 402 x 408 km, 51.6° (Epoch: 18 July)

Date Brightness Start Highest point End Pass type
(mag) Time Alt. Az. Time Alt. Az. Time Alt. Az.
18 Jul -1.7 01:33:03 15° WNW 01:35:05 27° N 01:37:58 10° NE visible
18 Jul -1.6 03:09:19 10° NW 03:12:13 28° N 03:15:07 10° ENE visible
18 Jul -3.8 04:45:44 10° WNW 04:49:02 84° NNE 04:52:20 10° ESE visible
18 Jul -3.2 23:02:58 10° SW 23:07:07 39° E 23:09:26 10° ENE visible
19 Jul -2.0 00:39:48 10° W 00:42:50 33° NNW 00:45:52 10° NE visible
19 Jul -1.4 02:17:09 10° NW 02:19:57 25° N 02:22:45 10° ENE visible
19 Jul -3.0 03:53:40 10° NW 03:56:55 53° NNE 04:00:09 10° ESE visible
19 Jul -3.2 22:11:13 10° SSW 22:14:11 33° SE 22:17:11 10° ENE visible
19 Jul -2.7 23:47:27 10° W 23:50:37 44° NNW 23:53:48 10° NE visible
20 Jul -1.4 01:24:52 10° WNW 01:27:39 24° N 01:30:26 10° NE visible
20 Jul -2.3 03:01:38 10° NW 03:04:44 37° NNE 03:07:50 10° E visible
20 Jul -3.5 04:38:06 10° WNW 04:41:17 45° SW 04:44:26 10° SE visible
20 Jul -3.5 22:55:11 10° WSW 22:58:27 68° NNW 23:01:44 10° ENE visible
21 Jul -1.5 00:32:30 10° WNW 00:35:21 26° N 00:38:11 10° NE visible
21 Jul -1.8 02:09:31 10° NW 02:12:29 29° NNE 02:15:26 10° ENE visible
21 Jul -4.0 03:45:56 10° WNW 03:49:14 80° SSW 03:52:31 10° SE visible
21 Jul -3.9 22:03:05 10° SW 22:06:20 73° SSE 22:09:37 10° ENE visible
21 Jul -1.8 23:40:05 10° WNW 23:43:03 30° NNW 23:46:02 10° NE visible
22 Jul -1.5 01:17:21 10° NW 01:20:11 25° N 01:23:00 10° ENE visible
22 Jul -3.4 02:53:49 10° NW 02:57:05 63° NNE 03:00:22 10° ESE visible
22 Jul -2.5 04:30:47 10° W 04:33:20 21° SW 04:35:53 10° S visible
22 Jul -2.4 22:47:40 10° W 22:50:47 39° NNW 22:53:54 10° NE visible
23 Jul -1.4 00:25:05 10° WNW 00:27:51 24° N 00:30:37 10° ENE visible
23 Jul -1.8 02:01:44 10° NW 02:03:26 25° NW 02:03:26 25° NW visible
23 Jul -3.1 21:55:19 10° WSW 21:58:33 57° NNW 22:01:48 10° NE visible
23 Jul -1.5 23:32:42 10° WNW 23:35:30 25° N 23:38:18 10° NE visible
24 Jul -1.9 01:09:36 10° NW 01:12:07 30° N 01:12:07 30° N visible
24 Jul -1.7 22:40:15 10° WNW 22:43:09 28° NNW 22:46:05 10° NE visible
25 Jul -1.7 00:17:26 10° NW 00:20:18 27° N 00:21:12 23° NE visible
25 Jul -2.1 21:47:47 10° W 21:50:50 35° NNW 21:53:54 10° NE visible
25 Jul -1.5 23:25:09 10° NW 23:27:55 24° N 23:30:26 12° ENE visible
26 Jul -1.4 01:01:43 10° NW 01:03:03 21° NW 01:03:03 21° NW visible
26 Jul -1.5 22:32:46 10° WNW 22:35:32 24° N 22:38:19 10° NE visible
27 Jul -2.2 00:09:34 10° NW 00:12:23 34° N 00:12:23 34° N visible
27 Jul -1.7 21:40:18 10° WNW 21:43:09 27° N 21:46:01 10° NE visible
27 Jul -1.9 23:17:23 10° NW 23:20:17 28° N 23:21:45 20° NE visible
